Location: Guilderland
(42.7045°N, 73.9115°W)
Time: 04:21:31
(UTC+00:00)

ADEOS Rocket - Pass Details

Date: 24 January 2020
Orbit: 859 x 1306 km, 98.7° (Epoch: 17 February)

Event Time Altitude Azimuth Distance (km) Brightness Sun altitude
Rises 23:05:32 0° 22° (NNE) 3,858 5.8 -12.5°
Reaches altitude 10° 23:08:14 10° 31° (NNE) 2,965 5.1 -12.9°
Maximum altitude 23:14:26 36° 96° (E) 1,775 3.9 -14.0°
Drops below altitude 10° 23:21:06 10° 161° (SSE) 3,211 5.6 -15.2°
Sets 23:24:07 0° 169° (S) 4,217 6.3 -15.8°
